Payson, AZ

2:14 AM MST on December 16, 2017 (GMT -0700)
Payson

Weather History for KPAN - November, 2013

Change the Weather History Date:

Saturday, November 9, 2013

  Actual Average Record
Temperature  
Mean Temperature 55 °F -  
Max Temperature 68 °F 65 °F 68 °F (2013)
Min Temperature 42 °F 31 °F 33 °F (2011)
Degree Days  
Heating Degree Days 10    
Growing Degree Days 5 (Base 50)    
Moisture  
Dew Point 27 °F    
Average Humidity 36    
Maximum Humidity 57    
Minimum Humidity 18    
Precipitation  
Precipitation 0.00 in - - ()
Sea Level Pressure  
Sea Level Pressure 30.22 in    
Wind  
Wind Speed 1 mph (WSW)    
Max Wind Speed 9 mph    
Max Gust Speed 15 mph    
Visibility 10 miles    
Events      
Averages and records for this station are not official NWS values.
T = Trace of Precipitation, MM = Missing Value Source: NWS Daily Summary

Daily Weather History Graph

Daily Weather History Graph

Search for Another Location

Airport or City:

Trip Planner

Search our weather history database for the weather conditions in past years. The results will help you decide how hot, cold, wet, or windy it might be!

Date:

Astronomy

Nov. 09, 2013 Rise Set
Actual Time 6:52 AM MST 5:25 PM MST
Civil Twilight 6:26 AM MST 5:51 PM MST
Nautical Twilight 5:56 AM MST 6:21 PM MST
Astronomical Twilight 5:27 AM MST 6:50 PM MST
Moon 12:34 PM MST (11/9) 11:55 PM MST (11/9)
Length of Visible Light 11h 24m
Length of Day
10h 32m
Waxing Crescent, 45% of the Moon is Illuminated
Nov 9
Waxing Crescent
Nov 9
First Quarter
Nov 17
Full
Nov 25
Last Quarter
Dec 2
New

Hourly Weather History & Observations

Time (MST) Temp. Windchill Dew Point Humidity Pressure Visibility Wind Dir Wind Speed Gust Speed Precip Events Conditions
12:15 AM 44.6 °F 43.1 °F 26.6 °F 49% 30.19 in 10.0 mi NNW 3.5 mph - N/A   Clear
12:35 AM 46.4 °F - 26.6 °F 46% 30.19 in 10.0 mi Calm Calm - N/A   Clear
12:55 AM 46.4 °F - 26.6 °F 46% 30.19 in 10.0 mi Calm Calm - N/A   Clear
1:15 AM 46.4 °F - 26.6 °F 46% 30.19 in 10.0 mi Calm Calm - N/A   Clear
1:35 AM 46.4 °F - 26.6 °F 46% 30.19 in 10.0 mi Calm Calm - N/A   Clear
1:55 AM 46.4 °F - 26.6 °F 46% 30.19 in 10.0 mi Calm Calm - N/A   Clear
2:15 AM 44.6 °F - 26.6 °F 49% 30.19 in 10.0 mi Calm Calm - N/A   Clear
2:35 AM 44.6 °F - 26.6 °F 49% 30.19 in 10.0 mi Calm Calm - N/A   Clear
2:55 AM 44.6 °F - 26.6 °F 49% 30.19 in 10.0 mi Calm Calm - N/A   Clear
3:15 AM 44.6 °F - 26.6 °F 49% 30.19 in 10.0 mi Calm Calm - N/A   Clear
3:35 AM 44.6 °F - 26.6 °F 49% 30.19 in 10.0 mi Calm Calm - N/A   Clear
3:55 AM 44.6 °F - 26.6 °F 49% 30.19 in 10.0 mi Calm Calm - N/A   Clear
4:15 AM 44.6 °F - 26.6 °F 49% 30.19 in 10.0 mi Calm Calm - N/A   Clear
4:35 AM 44.6 °F - 26.6 °F 49% 30.19 in 10.0 mi Calm Calm - N/A   Clear
4:55 AM 42.8 °F - 26.6 °F 53% 30.20 in 10.0 mi Calm Calm - N/A   Clear
5:15 AM 44.6 °F - 26.6 °F 49% 30.20 in 10.0 mi Calm Calm - N/A   Clear
5:35 AM 44.6 °F - 26.6 °F 49% 30.21 in 10.0 mi Calm Calm - N/A   Clear
5:55 AM 42.8 °F - 26.6 °F 53% 30.21 in 10.0 mi Calm Calm - N/A   Clear
6:15 AM 42.8 °F - 26.6 °F 53% 30.21 in 10.0 mi Calm Calm - N/A   Clear
6:35 AM 42.8 °F - 28.4 °F 57% 30.21 in 10.0 mi Calm Calm - N/A   Clear
6:55 AM 42.8 °F - 28.4 °F 57% 30.22 in 10.0 mi Calm Calm - N/A   Clear
7:15 AM 42.8 °F - 26.6 °F 53% 30.23 in 10.0 mi Calm Calm - N/A   Clear
7:35 AM 42.8 °F - 26.6 °F 53% 30.23 in 10.0 mi Calm Calm - N/A   Clear
7:55 AM 44.6 °F - 28.4 °F 53% 30.24 in 10.0 mi Calm Calm - N/A   Clear
8:15 AM 48.2 °F - 28.4 °F 46% 30.25 in 10.0 mi Calm Calm - N/A   Clear
8:35 AM 51.8 °F - 30.2 °F 44% 30.25 in 10.0 mi Calm Calm - N/A   Clear
8:55 AM 55.4 °F - 30.2 °F 38% 30.26 in 10.0 mi Calm Calm - N/A   Clear
9:15 AM 59.0 °F - 30.2 °F 34% 30.26 in 10.0 mi Calm Calm - N/A   Clear
9:35 AM 60.8 °F - 30.2 °F 31% 30.26 in 10.0 mi Calm Calm - N/A   Clear
9:55 AM 62.6 °F - 30.2 °F 30% 30.26 in 10.0 mi Calm Calm - N/A   Clear
10:15 AM 62.6 °F - 30.2 °F 30% 30.26 in 10.0 mi Calm Calm - N/A   Clear
10:35 AM 64.4 °F - 28.4 °F 26% 30.26 in 10.0 mi Calm Calm - N/A   Clear
10:55 AM 64.4 °F - 28.4 °F 26% 30.26 in 10.0 mi Calm Calm - N/A   Clear
11:15 AM 66.2 °F - 26.6 °F 23% 30.26 in 10.0 mi West 6.9 mph 12.7 mph N/A   Clear
11:35 AM 66.2 °F - 26.6 °F 23% 30.25 in 10.0 mi WSW 8.1 mph 15.0 mph N/A   Clear
11:55 AM 66.2 °F - 26.6 °F 23% 30.24 in 10.0 mi WSW 9.2 mph 15.0 mph N/A   Clear
12:15 PM 66.2 °F - 26.6 °F 23% 30.24 in 10.0 mi WSW 8.1 mph - N/A   Clear
12:35 PM 66.2 °F - 23.0 °F 19% 30.23 in 10.0 mi Variable 4.6 mph - N/A   Clear
12:55 PM 68.0 °F - 23.0 °F 18% 30.22 in 10.0 mi Variable 6.9 mph - N/A   Clear
1:15 PM 68.0 °F - 23.0 °F 18% 30.22 in 10.0 mi SW 9.2 mph - N/A   Clear
1:35 PM 68.0 °F - 26.6 °F 21% 30.21 in 10.0 mi Calm Calm 15.0 mph N/A   Clear
1:55 PM 68.0 °F - 24.8 °F 20% 30.21 in 10.0 mi Variable 5.8 mph - N/A   Clear
2:15 PM 68.0 °F - 24.8 °F 20% 30.20 in 10.0 mi WSW 4.6 mph - N/A   Clear
2:35 PM 68.0 °F - 24.8 °F 20% 30.20 in 10.0 mi Variable 6.9 mph - N/A   Clear
2:55 PM 68.0 °F - 24.8 °F 20% 30.20 in 10.0 mi West 5.8 mph - N/A   Clear
3:15 PM 68.0 °F - 24.8 °F 20% 30.19 in 10.0 mi Calm Calm - N/A   Clear
3:35 PM 68.0 °F - 26.6 °F 21% 30.19 in 10.0 mi Variable 5.8 mph - N/A   Clear
3:55 PM 68.0 °F - 26.6 °F 21% 30.20 in 10.0 mi SW 5.8 mph 11.5 mph N/A   Clear
4:15 PM 68.0 °F - 26.6 °F 21% 30.20 in 10.0 mi SSW 6.9 mph - N/A   Clear
4:35 PM 66.2 °F - 26.6 °F 23% 30.20 in 10.0 mi SSW 5.8 mph - N/A   Clear
4:55 PM 66.2 °F - 26.6 °F 23% 30.20 in 10.0 mi SW 4.6 mph - N/A   Clear
5:15 PM 64.4 °F - 26.6 °F 24% 30.20 in 10.0 mi SW 4.6 mph - N/A   Clear
5:35 PM 60.8 °F - 28.4 °F 29% 30.21 in 10.0 mi Calm Calm - N/A   Clear
5:55 PM 59.0 °F - 28.4 °F 31% 30.21 in 10.0 mi Calm Calm - N/A   Clear
6:15 PM 57.2 °F - 28.4 °F 33% 30.21 in 10.0 mi Calm Calm - N/A   Clear
6:35 PM 59.0 °F - 28.4 °F 31% 30.22 in 10.0 mi Calm Calm - N/A   Clear
7:35 PM 55.4 °F - 28.4 °F 36% 30.23 in 10.0 mi Calm Calm - N/A   Clear
7:55 PM 57.2 °F - 26.6 °F 31% 30.23 in 10.0 mi Calm Calm - N/A   Clear
8:15 PM 55.4 °F - 26.6 °F 33% 30.24 in 10.0 mi Calm Calm - N/A   Clear
8:35 PM 53.6 °F - 26.6 °F 35% 30.24 in 10.0 mi Calm Calm - N/A   Clear
8:55 PM 51.8 °F - 26.6 °F 38% 30.25 in 10.0 mi Calm Calm - N/A   Clear
9:15 PM 51.8 °F - 24.8 °F 35% 30.25 in 10.0 mi Calm Calm - N/A   Clear
9:35 PM 51.8 °F - 24.8 °F 35% 30.26 in 10.0 mi Calm Calm - N/A   Clear
9:55 PM 50.0 °F - 24.8 °F 37% 30.26 in 10.0 mi Calm Calm - N/A   Clear
10:15 PM 51.8 °F - 24.8 °F 35% 30.26 in 10.0 mi Calm Calm - N/A   Clear
10:35 PM 50.0 °F - 24.8 °F 37% 30.26 in 10.0 mi Calm Calm - N/A   Clear
10:55 PM 48.2 °F - 24.8 °F 40% 30.26 in 10.0 mi Calm Calm - N/A   Clear
11:15 PM 46.4 °F - 24.8 °F 43% 30.26 in 10.0 mi Calm Calm - N/A   Clear
11:35 PM 46.4 °F - 24.8 °F 43% 30.26 in 10.0 mi Calm Calm - N/A   Clear
11:55 PM 46.4 °F - 24.8 °F 43% 30.26 in 10.0 mi Calm Calm - N/A   Clear